| time (UTC) | temp F | wind direction | speed MPH | gust MPH | rain 1hr in | rain 24hr in | rain mn in | humidity % | barometer mb |
| 20260506170325 | 64 | 287 | 7.0 | 11.0 | 0.00 | 0.00 | 0.00 | 78 | 1019.3 |
| 20260506165828 | 64 | 239 | 7.0 | 11.0 | 0.00 | 0.00 | 0.00 | 79 | 1019.3 |
| 20260506165326 | 63 | 262 | 7.0 | 10.0 | 0.00 | 0.00 | 0.00 | 79 | 1019.3 |
| 20260506164828 | 63 | 278 | 6.0 | 10.0 | 0.00 | 0.00 | 0.00 | 79 | 1019.3 |
| 20260506164321 | 63 | 255 | 6.0 | 10.0 | 0.00 | 0.00 | 0.00 | 78 | 1019.3 |
| 20260506164040 | 62 | 299 | 7.0 | 10.0 | 0.00 | 0.00 | 0.00 | 78 | 1019.2 |
| 20260506163309 | 62 | 237 | 7.0 | 10.0 | 0.00 | 0.00 | 0.00 | 80 | 1019.2 |
| 20260506162804 | 62 | 282 | 6.0 | 10.0 | 0.00 | 0.00 | 0.00 | 80 | 1019.2 |
| 20260506162259 | 61 | 255 | 5.0 | 10.0 | 0.00 | 0.00 | 0.00 | 82 | 1019.2 |
| 20260506162016 | 61 | 272 | 5.0 | 10.0 | 0.00 | 0.00 | 0.00 | 82 | 1019.3 |
| 20260506161248 | 60 | 290 | 6.0 | 10.0 | 0.00 | 0.00 | 0.00 | 82 | 1019.3 |
| 20260506160747 | 60 | 286 | 5.0 | 9.0 | 0.00 | 0.00 | 0.00 | 83 | 1019.4 |
| 20260506160248 | 60 | 294 | 6.0 | 8.0 | 0.00 | 0.00 | 0.00 | 83 | 1019.3 |
| 20260506155748 | 59 | 263 | 7.0 | 9.0 | 0.00 | 0.00 | 0.00 | 84 | 1019.4 |
| 20260506155245 | 59 | 246 | 7.0 | 9.0 | 0.00 | 0.00 | 0.00 | 84 | 1019.4 |
| 20260506154743 | 59 | 259 | 6.0 | 9.0 | 0.00 | 0.00 | 0.00 | 84 | 1019.4 |
| 20260506154243 | 59 | 243 | 6.0 | 9.0 | 0.00 | 0.00 | 0.00 | 85 | 1019.3 |
| 20260506153743 | 59 | 265 | 5.0 | 9.0 | 0.00 | 0.00 | 0.00 | 85 | 1019.4 |
| 20260506153242 | 59 | 257 | 4.0 | 9.0 | 0.00 | 0.00 | 0.00 | 86 | 1019.5 |
| 20260506152743 | 58 | 263 | 3.0 | 7.0 | 0.00 | 0.00 | 0.00 | 86 | 1019.4 |
| 20260506152243 | 58 | 265 | 3.0 | 6.0 | 0.00 | 0.00 | 0.00 | 87 | 1019.3 |
| 20260506151743 | 58 | 261 | 4.0 | 7.0 | 0.00 | 0.00 | 0.00 | 87 | 1019.4 |
| 20260506151459 | 58 | 274 | 5.0 | 9.0 | 0.00 | 0.00 | 0.00 | 87 | 1019.4 |
| 20260506150744 | 58 | 261 | 5.0 | 9.0 | 0.00 | 0.00 | 0.00 | 87 | 1019.4 |
| 20260506150239 | 58 | 256 | 4.0 | 8.0 | 0.00 | 0.00 | 0.00 | 88 | 1019.5 |
| 20260506145739 | 58 | 265 | 4.0 | 7.0 | 0.00 | 0.00 | 0.00 | 88 | 1019.4 |
| 20260506145240 | 58 | 255 | 4.0 | 7.0 | 0.00 | 0.00 | 0.00 | 88 | 1019.4 |
| 20260506144735 | 57 | 258 | 3.0 | 6.0 | 0.00 | 0.00 | 0.00 | 88 | 1019.4 |
| 20260506144228 | 57 | 276 | 1.0 | 4.0 | 0.00 | 0.00 | 0.00 | 89 | 1019.4 |
| 20260506143722 | 57 | 276 | 1.0 | 4.0 | 0.00 | 0.00 | 0.00 | 89 | 1019.2 |
| 20260506143216 | 57 | 277 | 2.0 | 4.0 | 0.00 | 0.00 | 0.00 | 89 | 1019.3 |
| 20260506142710 | 57 | 278 | 2.0 | 4.0 | 0.00 | 0.00 | 0.00 | 89 | 1019.2 |
| 20260506142204 | 57 | 278 | 0.0 | 4.0 | 0.00 | 0.00 | 0.00 | 89 | 1019.1 |
| 20260506141658 | 57 | 279 | 0.0 | 0.0 | 0.00 | 0.00 | 0.00 | 90 | 1019.1 |
| 20260506141153 | 57 | 279 | 0.0 | 0.0 | 0.00 | 0.00 | 0.00 | 90 | 1018.9 |
| 20260506140647 | 57 | 279 | 0.0 | 0.0 | 0.00 | 0.00 | 0.00 | 90 | 1018.8 |
| 20260506140140 | 57 | 279 | 0.0 | 0.0 | 0.00 | 0.00 | 0.00 | 90 | 1018.8 |
| 20260506135635 | 56 | 279 | 0.0 | 0.0 | 0.00 | 0.00 | 0.00 | 90 | 1018.8 |
| 20260506135128 | 56 | 279 | 0.0 | 0.0 | 0.00 | 0.00 | 0.00 | 90 | 1018.7 |
| 20260506134842 | 56 | 279 | 0.0 | 0.0 | 0.00 | 0.00 | 0.00 | 90 | 1018.8 |
| 20260506134118 | 56 | 279 | 0.0 | 0.0 | 0.00 | 0.00 | 0.00 | 90 | 1018.7 |
| 20260506133610 | 56 | 279 | 0.0 | 0.0 | 0.00 | 0.00 | 0.00 | 90 | 1018.7 |
| 20260506133104 | 56 | 279 | 0.0 | 0.0 | 0.00 | 0.00 | 0.00 | 90 | 1018.7 |
| 20260506132558 | 56 | 279 | 0.0 | 0.0 | 0.00 | 0.00 | 0.00 | 90 | 1018.7 |
| 20260506132052 | 56 | 279 | 0.0 | 0.0 | 0.00 | 0.00 | 0.00 | 90 | 1018.6 |
| 20260506131547 | 56 | 279 | 0.0 | 0.0 | 0.00 | 0.00 | 0.00 | 91 | 1018.6 |
| 20260506131040 | 56 | 279 | 0.0 | 0.0 | 0.00 | 0.00 | 0.00 | 91 | 1018.5 |
| 20260506130534 | 56 | 279 | 0.0 | 0.0 | 0.00 | 0.00 | 0.00 | 92 | 1018.4 |
| 20260506130251 | 56 | 279 | 0.0 | 0.0 | 0.00 | 0.00 | 0.00 | 93 | 1018.5 |
| 20260506125522 | 56 | 278 | 0.0 | 0.0 | 0.00 | 0.00 | 0.00 | 93 | 1018.5 |
| 20260506125016 | 56 | 278 | 0.0 | 0.0 | 0.00 | 0.00 | 0.00 | 94 | 1018.4 |
| 20260506124510 | 56 | 278 | 0.0 | 0.0 | 0.00 | 0.00 | 0.00 | 93 | 1018.4 |
| 20260506124004 | 56 | 278 | 0.0 | 0.0 | 0.00 | 0.00 | 0.00 | 93 | 1018.4 |
| 20260506123459 | 56 | 278 | 0.0 | 0.0 | 0.00 | 0.00 | 0.00 | 94 | 1018.4 |
| 20260506122952 | 56 | 278 | 0.0 | 0.0 | 0.00 | 0.00 | 0.00 | 94 | 1018.5 |
| 20260506122929 | 56 | 278 | 0.0 | 0.0 | 0.00 | 0.00 | 0.00 | 94 | 1018.4 |
| 20260506122209 | 56 | 278 | 0.0 | 0.0 | 0.00 | 0.00 | 0.00 | 94 | 1018.3 |
| 20260506121434 | 56 | 278 | 0.0 | 0.0 | 0.00 | 0.00 | 0.00 | 95 | 1018.2 |
| 20260506120928 | 56 | 278 | 0.0 | 0.0 | 0.00 | 0.00 | 0.00 | 95 | 1018.1 |
| 20260506120422 | 56 | 278 | 0.0 | 0.0 | 0.00 | 0.00 | 0.00 | 95 | 1018.1 |
| 20260506120138 | 56 | 287 | 0.0 | 0.0 | 0.00 | 0.00 | 0.00 | 95 | 1018.0 |
| 20260506115410 | 56 | 287 | 0.0 | 0.0 | 0.00 | 0.00 | 0.00 | 95 | 1018.0 |
| 20260506114904 | 56 | 288 | 0.0 | 0.0 | 0.00 | 0.00 | 0.00 | 94 | 1018.0 |
| 20260506114358 | 56 | 288 | 0.0 | 0.0 | 0.00 | 0.00 | 0.00 | 94 | 1018.1 |
| 20260506114114 | 56 | 288 | 0.0 | 0.0 | 0.00 | 0.00 | 0.00 | 94 | 1018.1 |
| 20260506113607 | 56 | 288 | 0.0 | 0.0 | 0.00 | 0.00 | 0.00 | 94 | 1018.1 |
| 20260506112841 | 56 | 288 | 0.0 | 0.0 | 0.00 | 0.00 | 0.00 | 94 | 1018.1 |
| 20260506112334 | 56 | 288 | 0.0 | 0.0 | 0.00 | 0.00 | 0.00 | 93 | 1018.1 |
| 20260506111829 | 56 | 288 | 0.0 | 0.0 | 0.00 | 0.00 | 0.00 | 93 | 1018.2 |
| 20260506111323 | 56 | 288 | 0.0 | 0.0 | 0.00 | 0.00 | 0.00 | 93 | 1018.0 |
| 20260506110817 | 56 | 288 | 0.0 | 0.0 | 0.00 | 0.00 | 0.00 | 93 | 1018.0 |
| 20260506110310 | 56 | 288 | 0.0 | 0.0 | 0.00 | 0.00 | 0.00 | 93 | 1017.8 |
| 20260506110028 | 56 | 288 | 0.0 | 0.0 | 0.00 | 0.01 | 0.00 | 92 | 1017.8 |
| 20260506105258 | 56 | 288 | 0.0 | 0.0 | 0.00 | 0.01 | 0.00 | 92 | 1017.7 |
| 20260506104751 | 56 | 288 | 0.0 | 0.0 | 0.00 | 0.01 | 0.00 | 92 | 1017.8 |
| 20260506104249 | 56 | 288 | 0.0 | 0.0 | 0.00 | 0.01 | 0.00 | 92 | 1017.7 |
| 20260506103750 | 56 | 288 | 0.0 | 0.0 | 0.00 | 0.01 | 0.00 | 92 | 1017.7 |
| 20260506103514 | 56 | 288 | 0.0 | 0.0 | 0.00 | 0.01 | 0.00 | 93 | 1017.7 |
| 20260506102749 | 56 | 288 | 0.0 | 0.0 | 0.00 | 0.02 | 0.00 | 93 | 1017.7 |
| 20260506102248 | 56 | 288 | 0.0 | 0.0 | 0.00 | 0.02 | 0.00 | 93 | 1017.6 |
| 20260506101749 | 56 | 288 | 0.0 | 0.0 | 0.00 | 0.02 | 0.00 | 93 | 1017.5 |
| 20260506101514 | 56 | 288 | 0.0 | 0.0 | 0.00 | 0.03 | 0.00 | 92 | 1017.6 |
| 20260506100749 | 56 | 288 | 0.0 | 0.0 | 0.00 | 0.03 | 0.00 | 92 | 1017.5 |
| 20260506100251 | 56 | 288 | 0.0 | 0.0 | 0.00 | 0.03 | 0.00 | 92 | 1017.6 |
| 20260506095750 | 56 | 288 | 0.0 | 0.0 | 0.00 | 0.03 | 0.00 | 92 | 1017.5 |
| 20260506095511 | 56 | 288 | 0.0 | 0.0 | 0.00 | 0.03 | 0.00 | 92 | 1017.6 |
| 20260506094750 | 56 | 288 | 0.0 | 0.0 | 0.00 | 0.03 | 0.00 | 92 | 1017.5 |
| 20260506094249 | 56 | 288 | 0.0 | 0.0 | 0.00 | 0.04 | 0.00 | 93 | 1017.5 |
| 20260506093748 | 56 | 288 | 0.0 | 0.0 | 0.00 | 0.04 | 0.00 | 93 | 1017.4 |
| 20260506093249 | 56 | 288 | 0.0 | 0.0 | 0.00 | 0.05 | 0.00 | 93 | 1017.3 |
| 20260506092749 | 56 | 284 | 0.0 | 0.0 | 0.00 | 0.06 | 0.00 | 94 | 1017.4 |
| 20260506092250 | 56 | 284 | 0.0 | 0.0 | 0.00 | 0.07 | 0.00 | 94 | 1017.4 |
| 20260506091746 | 56 | 284 | 0.0 | 0.0 | 0.00 | 0.09 | 0.00 | 93 | 1017.3 |
| 20260506091241 | 56 | 284 | 0.0 | 0.0 | 0.00 | 0.11 | 0.00 | 93 | 1017.4 |
| 20260506090736 | 56 | 284 | 0.0 | 0.0 | 0.00 | 0.14 | 0.00 | 92 | 1017.5 |
| 20260506090230 | 56 | 284 | 0.0 | 0.0 | 0.00 | 0.16 | 0.00 | 92 | 1017.5 |
| 20260506085723 | 56 | 284 | 0.0 | 0.0 | 0.00 | 0.17 | 0.00 | 92 | 1017.5 |
| 20260506085218 | 56 | 284 | 0.0 | 0.0 | 0.00 | 0.17 | 0.00 | 92 | 1017.6 |
| 20260506084711 | 56 | 284 | 0.0 | 0.0 | 0.00 | 0.17 | 0.00 | 92 | 1017.5 |
| 20260506084205 | 56 | 284 | 0.0 | 0.0 | 0.00 | 0.18 | 0.00 | 92 | 1017.6 |
| 20260506083659 | 56 | 284 | 0.0 | 0.0 | 0.00 | 0.18 | 0.00 | 92 | 1017.6 |
| 20260506083154 | 56 | 284 | 0.0 | 0.0 | 0.00 | 0.19 | 0.00 | 92 | 1017.7 |
| 20260506082914 | 56 | 284 | 0.0 | 0.0 | 0.00 | 0.19 | 0.00 | 91 | 1017.7 |
| 20260506082141 | 56 | 284 | 0.0 | 0.0 | 0.00 | 0.19 | 0.00 | 91 | 1017.8 |
| 20260506081635 | 56 | 284 | 1.0 | 3.0 | 0.00 | 0.19 | 0.00 | 91 | 1017.9 |
| 20260506081129 | 56 | 284 | 2.0 | 3.0 | 0.00 | 0.19 | 0.00 | 92 | 1017.8 |
| 20260506080849 | 56 | 283 | 2.0 | 4.0 | 0.00 | 0.19 | 0.00 | 92 | 1017.7 |
| 20260506080117 | 56 | 283 | 3.0 | 6.0 | 0.00 | 0.19 | 0.00 | 92 | 1017.6 |
| 20260506073042 | 55 | 301 | 3.0 | 7.0 | 0.00 | 0.21 | 0.00 | 92 | 1017.2 |
| 20260506072535 | 55 | 268 | 3.0 | 5.0 | 0.00 | 0.22 | 0.00 | 93 | 1017.2 |
| 20260506072029 | 54 | 244 | 3.0 | 5.0 | 0.00 | 0.22 | 0.00 | 93 | 1017.1 |
| 20260506071749 | 54 | 240 | 4.0 | 7.0 | 0.00 | 0.22 | 0.00 | 93 | 1017.0 |
| 20260506071017 | 54 | 251 | 5.0 | 7.0 | 0.00 | 0.22 | 0.00 | 93 | 1017.1 |
| 20260506070952 | 54 | 247 | 5.0 | 6.0 | 0.00 | 0.22 | 0.00 | 93 | 1017.0 |
| 20260506062447 | 56 | 286 | 4.0 | 7.0 | 0.00 | 0.23 | 0.22 | 89 | 1016.6 |
| 20260506062212 | 56 | 290 | 4.0 | 7.0 | 0.00 | 0.24 | 0.22 | 89 | 1016.7 |
| 20260506061447 | 56 | 301 | 4.0 | 7.0 | 0.00 | 0.24 | 0.22 | 89 | 1016.6 |
| 20260506060947 | 56 | 298 | 4.0 | 6.0 | 0.00 | 0.24 | 0.22 | 89 | 1016.6 |
| 20260506060447 | 56 | 290 | 5.0 | 8.0 | 0.00 | 0.24 | 0.22 | 88 | 1016.5 |
| 20260506060212 | 57 | 295 | 5.0 | 8.0 | 0.00 | 0.24 | 0.22 | 88 | 1016.4 |
| 20260506051146 | 58 | 273 | 4.0 | 7.0 | 0.00 | 0.25 | 0.22 | 85 | 1016.0 |
| 20260506050416 | 58 | 284 | 4.0 | 8.0 | 0.00 | 0.25 | 0.22 | 84 | 1015.9 |
| 20260506044858 | 60 | 277 | 7.0 | 12.0 | 0.00 | 0.25 | 0.22 | 84 | 1015.7 |
| 20260506044601 | 60 | 261 | 6.0 | 10.0 | 0.00 | 0.25 | 0.22 | 86 | 1015.6 |
| 20260506044447 | 60 | 271 | 7.0 | 10.0 | 0.00 | 0.25 | 0.22 | 86 | 1015.7 |
| 20260506043340 | 60 | 246 | 4.0 | 6.0 | 0.00 | 0.25 | 0.22 | 87 | 1015.5 |
| 20260506042835 | 60 | 248 | 4.0 | 5.0 | 0.00 | 0.25 | 0.22 | 86 | 1015.5 |
| 20260506042328 | 60 | 249 | 3.0 | 5.0 | 0.00 | 0.25 | 0.22 | 86 | 1015.4 |
| 20260506041822 | 60 | 249 | 3.0 | 5.0 | 0.00 | 0.25 | 0.22 | 86 | 1015.5 |
| 20260506041321 | 60 | 249 | 4.0 | 5.0 | 0.00 | 0.25 | 0.22 | 87 | 1015.3 |
| 20260506040806 | 61 | 249 | 4.0 | 5.0 | 0.00 | 0.25 | 0.22 | 86 | 1015.3 |
| 20260506040524 | 61 | 250 | 5.0 | 6.0 | 0.00 | 0.25 | 0.22 | 87 | 1015.3 |
| 20260506035754 | 61 | 246 | 5.0 | 6.0 | 0.00 | 0.25 | 0.22 | 87 | 1015.2 |
| 20260506035248 | 61 | 244 | 4.0 | 6.0 | 0.00 | 0.25 | 0.22 | 88 | 1015.2 |
| 20260506034742 | 61 | 232 | 4.0 | 6.0 | 0.00 | 0.25 | 0.22 | 87 | 1015.0 |
| 20260506034236 | 61 | 232 | 4.0 | 6.0 | 0.00 | 0.25 | 0.22 | 86 | 1015.0 |
| 20260506033733 | 61 | 233 | 4.0 | 5.0 | 0.00 | 0.25 | 0.22 | 87 | 1015.0 |
| 20260506033224 | 61 | 232 | 3.0 | 4.0 | 0.00 | 0.25 | 0.22 | 87 | 1015.0 |
| 20260506032718 | 61 | 232 | 2.0 | 3.0 | 0.00 | 0.25 | 0.22 | 87 | 1015.0 |
| 20260506032212 | 61 | 232 | 2.0 | 3.0 | 0.00 | 0.25 | 0.22 | 86 | 1015.0 |
| 20260506031925 | 61 | 232 | 1.0 | 3.0 | 0.00 | 0.25 | 0.22 | 86 | 1014.9 |
| 20260506031424 | 61 | 232 | 2.0 | 2.0 | 0.00 | 0.25 | 0.22 | 85 | 1014.9 |
| 20260506030655 | 61 | 232 | 3.0 | 4.0 | 0.00 | 0.25 | 0.22 | 85 | 1014.9 |
| 20260506030410 | 62 | 232 | 3.0 | 4.0 | 0.00 | 0.25 | 0.22 | 85 | 1014.8 |
| 20260506025642 | 62 | 232 | 4.0 | 5.0 | 0.00 | 0.25 | 0.22 | 84 | 1014.6 |
| 20260506025405 | 62 | 232 | 4.0 | 5.0 | 0.00 | 0.25 | 0.22 | 84 | 1014.4 |
| 20260506024642 | 62 | 232 | 4.0 | 5.0 | 0.00 | 0.25 | 0.22 | 84 | 1014.4 |
| 20260506024141 | 62 | 221 | 3.0 | 4.0 | 0.00 | 0.25 | 0.22 | 83 | 1014.4 |
| 20260506023641 | 62 | 221 | 3.0 | 4.0 | 0.00 | 0.25 | 0.22 | 82 | 1014.4 |
| 20260506023410 | 62 | 219 | 3.0 | 4.0 | 0.00 | 0.25 | 0.22 | 81 | 1014.4 |
| 20260506022639 | 62 | 251 | 2.0 | 4.0 | 0.00 | 0.25 | 0.22 | 82 | 1014.4 |
| 20260506022410 | 62 | 251 | 2.0 | 5.0 | 0.00 | 0.25 | 0.22 | 81 | 1014.2 |
| 20260506021640 | 63 | 251 | 3.0 | 5.0 | 0.00 | 0.25 | 0.22 | 80 | 1014.3 |
| 20260506021137 | 63 | 249 | 2.0 | 5.0 | 0.00 | 0.25 | 0.22 | 80 | 1014.1 |
| 20260506020635 | 63 | 214 | 2.0 | 4.0 | 0.00 | 0.25 | 0.22 | 80 | 1014.1 |
| 20260506020406 | 63 | 213 | 3.0 | 6.0 | 0.00 | 0.25 | 0.22 | 80 | 1014.2 |
| 20260506015635 | 63 | 211 | 4.0 | 6.0 | 0.00 | 0.25 | 0.22 | 78 | 1014.2 |
| 20260506015354 | 63 | 194 | 4.0 | 5.0 | 0.00 | 0.25 | 0.22 | 78 | 1014.1 |
| 20260506014857 | 63 | 203 | 4.0 | 5.0 | 0.00 | 0.25 | 0.22 | 78 | 1014.1 |
| 20260506014401 | 63 | 212 | 4.0 | 7.0 | 0.00 | 0.25 | 0.22 | 77 | 1014.0 |
| 20260506013629 | 63 | 197 | 4.0 | 8.0 | 0.00 | 0.25 | 0.22 | 77 | 1014.0 |
| 20260506013129 | 64 | 194 | 4.0 | 8.0 | 0.00 | 0.25 | 0.22 | 76 | 1014.0 |
| 20260506012630 | 64 | 201 | 4.0 | 8.0 | 0.00 | 0.25 | 0.22 | 77 | 1014.0 |
| 20260506012124 | 64 | 199 | 5.0 | 8.0 | 0.00 | 0.25 | 0.22 | 77 | 1014.0 |
| 20260506011618 | 64 | 211 | 5.0 | 8.0 | 0.00 | 0.25 | 0.22 | 76 | 1014.0 |
| 20260506011114 | 64 | 208 | 4.0 | 8.0 | 0.00 | 0.25 | 0.22 | 76 | 1013.9 |
| 20260506010616 | 64 | 197 | 4.0 | 6.0 | 0.00 | 0.25 | 0.22 | 76 | 1014.0 |
| 20260506010344 | 64 | 218 | 4.0 | 6.0 | 0.00 | 0.25 | 0.22 | 78 | 1013.9 |
| 20260506005616 | 64 | 230 | 5.0 | 6.0 | 0.00 | 0.25 | 0.22 | 77 | 1014.0 |
| 20260506005115 | 64 | 226 | 5.0 | 7.0 | 0.00 | 0.25 | 0.22 | 79 | 1013.9 |
| 20260506004617 | 64 | 230 | 5.0 | 7.0 | 0.00 | 0.25 | 0.22 | 78 | 1013.9 |
| 20260506004116 | 64 | 236 | 5.0 | 6.0 | 0.00 | 0.25 | 0.22 | 77 | 1014.0 |
| 20260506003614 | 64 | 234 | 5.0 | 6.0 | 0.00 | 0.25 | 0.22 | 78 | 1013.9 |
| 20260506003116 | 64 | 224 | 4.0 | 6.0 | 0.00 | 0.25 | 0.22 | 77 | 1013.9 |
| 20260506002615 | 64 | 236 | 2.0 | 5.0 | 0.00 | 0.25 | 0.22 | 76 | 1013.9 |
| 20260506002346 | 64 | 244 | 1.0 | 4.0 | 0.00 | 0.25 | 0.22 | 74 | 1013.9 |
| 20260506001614 | 65 | 246 | 1.0 | 3.0 | 0.00 | 0.25 | 0.22 | 74 | 1013.8 |
| 20260506001116 | 65 | 245 | 2.0 | 3.0 | 0.00 | 0.25 | 0.22 | 75 | 1013.8 |
| 20260506000616 | 64 | 245 | 2.0 | 3.0 | 0.00 | 0.25 | 0.22 | 73 | 1013.8 |
| 20260506000116 | 65 | 246 | 2.0 | 5.0 | 0.00 | 0.25 | 0.22 | 74 | 1013.9 |
| 20260505235841 | 65 | 245 | 4.0 | 8.0 | 0.00 | 0.25 | 0.22 | 74 | 1013.8 |
| 20260505235116 | 65 | 246 | 3.0 | 8.0 | 0.00 | 0.25 | 0.22 | 74 | 1013.7 |
| 20260505234617 | 66 | 273 | 3.0 | 7.0 | 0.00 | 0.25 | 0.22 | 74 | 1013.7 |
| 20260505234110 | 66 | 246 | 4.0 | 7.0 | 0.00 | 0.25 | 0.22 | 76 | 1013.7 |
| 20260505233605 | 66 | 265 | 4.0 | 7.0 | 0.00 | 0.25 | 0.22 | 73 | 1013.9 |
| 20260505233321 | 65 | 259 | 3.0 | 8.0 | 0.00 | 0.25 | 0.22 | 73 | 1013.7 |
| 20260505232556 | 65 | 269 | 4.0 | 10.0 | 0.00 | 0.25 | 0.22 | 76 | 1013.7 |
| 20260505232058 | 65 | 250 | 5.0 | 10.0 | 0.00 | 0.25 | 0.22 | 74 | 1013.8 |
| 20260505231554 | 65 | 261 | 4.0 | 9.0 | 0.00 | 0.25 | 0.22 | 77 | 1013.8 |
| 20260505231055 | 64 | 253 | 4.0 | 9.0 | 0.00 | 0.25 | 0.22 | 76 | 1013.8 |
| 20260505230554 | 65 | 263 | 4.0 | 9.0 | 0.00 | 0.25 | 0.22 | 76 | 1013.8 |
| 20260505230055 | 63 | 251 | 4.0 | 9.0 | 0.00 | 0.25 | 0.22 | 79 | 1013.8 |
| 20260505225555 | 64 | 252 | 5.0 | 9.0 | 0.00 | 0.25 | 0.22 | 76 | 1013.9 |
| 20260505225324 | 63 | 213 | 5.0 | 9.0 | 0.00 | 0.25 | 0.22 | 79 | 1013.9 |
| 20260505224821 | 63 | 236 | 4.0 | 9.0 | 0.00 | 0.25 | 0.22 | 79 | 1014.0 |
| 20260505224056 | 64 | 270 | 4.0 | 8.0 | 0.00 | 0.25 | 0.22 | 80 | 1014.0 |
| 20260505223554 | 63 | 245 | 4.0 | 8.0 | 0.00 | 0.25 | 0.22 | 79 | 1014.1 |
| 20260505223056 | 62 | 228 | 4.0 | 6.0 | 0.00 | 0.25 | 0.22 | 81 | 1014.1 |
| 20260505222555 | 62 | 238 | 2.0 | 5.0 | 0.00 | 0.25 | 0.22 | 81 | 1014.3 |
| 20260505222057 | 62 | 248 | 2.0 | 4.0 | 0.00 | 0.25 | 0.22 | 80 | 1014.3 |
| 20260505221558 | 61 | 240 | 2.0 | 5.0 | 0.00 | 0.25 | 0.22 | 81 | 1014.4 |
| 20260505221058 | 61 | 240 | 3.0 | 5.0 | 0.00 | 0.25 | 0.22 | 81 | 1014.3 |
| 20260505220546 | 61 | 260 | 4.0 | 6.0 | 0.00 | 0.25 | 0.22 | 82 | 1014.4 |
| 20260505220040 | 61 | 263 | 3.0 | 6.0 | 0.00 | 0.25 | 0.22 | 83 | 1014.4 |
| 20260505215805 | 61 | 251 | 4.0 | 6.0 | 0.00 | 0.25 | 0.22 | 84 | 1014.4 |
| 20260505215032 | 60 | 228 | 5.0 | 8.0 | 0.00 | 0.25 | 0.22 | 83 | 1014.4 |
| 20260505214522 | 60 | 217 | 5.0 | 8.0 | 0.00 | 0.25 | 0.22 | 85 | 1014.5 |
| 20260505214016 | 60 | 254 | 6.0 | 9.0 | 0.00 | 0.25 | 0.22 | 86 | 1014.4 |
| 20260505213509 | 60 | 249 | 6.0 | 9.0 | 0.00 | 0.25 | 0.22 | 87 | 1014.5 |
| 20260505213005 | 60 | 259 | 5.0 | 8.0 | 0.00 | 0.25 | 0.22 | 86 | 1014.5 |
| 20260505212723 | 60 | 263 | 4.0 | 8.0 | 0.00 | 0.25 | 0.22 | 86 | 1014.6 |
| 20260505211953 | 60 | 240 | 3.0 | 6.0 | 0.00 | 0.25 | 0.22 | 86 | 1014.6 |
| 20260505211446 | 60 | 236 | 3.0 | 6.0 | 0.00 | 0.25 | 0.22 | 86 | 1014.6 |
| 20260505210940 | 60 | 236 | 4.0 | 7.0 | 0.00 | 0.25 | 0.22 | 86 | 1014.6 |
| 20260505210437 | 60 | 236 | 4.0 | 7.0 | 0.00 | 0.25 | 0.22 | 86 | 1014.6 |
| 20260505205934 | 60 | 255 | 4.0 | 8.0 | 0.00 | 0.25 | 0.22 | 86 | 1014.6 |
| 20260505205422 | 60 | 238 | 5.0 | 9.0 | 0.00 | 0.25 | 0.22 | 86 | 1014.6 |
| 20260505204916 | 60 | 256 | 6.0 | 10.0 | 0.00 | 0.25 | 0.22 | 85 | 1014.6 |
| 20260505204411 | 60 | 242 | 6.0 | 10.0 | 0.00 | 0.25 | 0.22 | 85 | 1014.7 |
| 20260505203905 | 61 | 232 | 5.0 | 10.0 | 0.00 | 0.25 | 0.22 | 83 | 1014.7 |
| 20260505203358 | 61 | 234 | 4.0 | 9.0 | 0.00 | 0.25 | 0.22 | 84 | 1014.6 |
| 20260505202852 | 61 | 209 | 5.0 | 9.0 | 0.00 | 0.25 | 0.22 | 85 | 1014.6 |
| 20260505202346 | 60 | 157 | 4.0 | 9.0 | 0.00 | 0.25 | 0.22 | 84 | 1014.6 |
| 20260505201840 | 60 | 151 | 4.0 | 8.0 | 0.00 | 0.25 | 0.22 | 86 | 1014.7 |
| 20260505201334 | 60 | 186 | 4.0 | 7.0 | 0.00 | 0.25 | 0.22 | 86 | 1014.6 |
| 20260505200827 | 60 | 162 | 4.0 | 6.0 | 0.00 | 0.25 | 0.22 | 86 | 1014.7 |
| 20260505200322 | 59 | 141 | 4.0 | 6.0 | 0.00 | 0.25 | 0.22 | 87 | 1014.7 |
| 20260505195816 | 59 | 110 | 3.0 | 6.0 | 0.00 | 0.25 | 0.22 | 86 | 1014.8 |
| 20260505195310 | 59 | 142 | 2.0 | 5.0 | 0.00 | 0.25 | 0.22 | 88 | 1014.8 |
| 20260505194804 | 59 | 151 | 3.0 | 5.0 | 0.00 | 0.25 | 0.22 | 88 | 1014.8 |
| 20260505194258 | 59 | 146 | 3.0 | 5.0 | 0.00 | 0.25 | 0.22 | 88 | 1014.9 |
| 20260505193753 | 58 | 175 | 3.0 | 5.0 | 0.00 | 0.25 | 0.22 | 88 | 1014.8 |
| 20260505193246 | 58 | 170 | 3.0 | 5.0 | 0.00 | 0.25 | 0.22 | 88 | 1014.8 |
| 20260505193004 | 58 | 192 | 3.0 | 4.0 | 0.00 | 0.25 | 0.22 | 88 | 1014.8 |
| 20260505192234 | 58 | 164 | 3.0 | 5.0 | 0.00 | 0.25 | 0.22 | 89 | 1014.8 |
| 20260505191725 | 58 | 146 | 4.0 | 6.0 | 0.00 | 0.25 | 0.22 | 89 | 1014.8 |
| 20260505191219 | 57 | 139 | 4.0 | 6.0 | 0.00 | 0.25 | 0.22 | 89 | 1014.9 |
| 20260505190716 | 58 | 155 | 4.0 | 5.0 | 0.00 | 0.25 | 0.22 | 89 | 1014.8 |
| 20260505190219 | 58 | 160 | 4.0 | 6.0 | 0.00 | 0.25 | 0.22 | 90 | 1014.9 |
| 20260505185936 | 57 | 165 | 4.0 | 8.0 | 0.00 | 0.25 | 0.22 | 90 | 1014.8 |
| 20260505185214 | 57 | 158 | 4.0 | 8.0 | 0.00 | 0.25 | 0.22 | 91 | 1014.8 |
| 20260505184714 | 57 | 175 | 4.0 | 7.0 | 0.00 | 0.25 | 0.22 | 90 | 1014.8 |
| 20260505184216 | 57 | 189 | 5.0 | 7.0 | 0.00 | 0.25 | 0.22 | 90 | 1014.7 |
| 20260505183714 | 58 | 203 | 5.0 | 7.0 | 0.00 | 0.25 | 0.22 | 89 | 1014.6 |
| 20260505183214 | 58 | 232 | 4.0 | 6.0 | 0.00 | 0.25 | 0.22 | 89 | 1014.6 |
| 20260505182713 | 58 | 219 | 2.0 | 6.0 | 0.00 | 0.25 | 0.22 | 89 | 1014.7 |
| 20260505182443 | 57 | 208 | 2.0 | 4.0 | 0.00 | 0.25 | 0.22 | 89 | 1014.6 |
| 20260505181713 | 57 | 255 | 3.0 | 5.0 | 0.00 | 0.25 | 0.22 | 88 | 1014.6 |
| 20260505181214 | 57 | 256 | 4.0 | 7.0 | 0.00 | 0.25 | 0.22 | 89 | 1014.5 |
| 20260505180919 | 57 | 237 | 4.0 | 8.0 | 0.00 | 0.25 | 0.22 | 88 | 1014.5 |
| 20260505180804 | 57 | 253 | 4.0 | 8.0 | 0.00 | 0.25 | 0.22 | 88 | 1014.5 |
| 20260505175715 | 57 | 238 | 5.0 | 8.0 | 0.00 | 0.25 | 0.22 | 87 | 1014.4 |
| 20260505175215 | 58 | 265 | 6.0 | 11.0 | 0.00 | 0.25 | 0.22 | 88 | 1014.5 |
| 20260505174715 | 58 | 232 | 6.0 | 11.0 | 0.00 | 0.25 | 0.22 | 88 | 1014.4 |
| 20260505174214 | 57 | 260 | 6.0 | 9.0 | 0.00 | 0.25 | 0.22 | 89 | 1014.3 |
| 20260505173714 | 57 | 244 | 6.0 | 9.0 | 0.00 | 0.25 | 0.22 | 90 | 1014.4 |
| 20260505173212 | 57 | 235 | 5.0 | 8.0 | 0.00 | 0.25 | 0.22 | 90 | 1014.4 |
| 20260505173155 | 56 | 223 | 5.0 | 9.0 | 0.00 | 0.25 | 0.22 | 90 | 1014.2 |
| 20260505172213 | 56 | 230 | 5.0 | 9.0 | 0.00 | 0.25 | 0.22 | 90 | 1014.2 |
| 20260505171712 | 56 | 232 | 5.0 | 9.0 | 0.00 | 0.25 | 0.22 | 90 | 1014.3 |
| 20260505171211 | 56 | 235 | 5.0 | 9.0 | 0.00 | 0.25 | 0.22 | 90 | 1014.3 |
| 20260505170936 | 56 | 244 | 4.0 | 8.0 | 0.00 | 0.25 | 0.22 | 90 | 1014.3 |